This is the latest recevied weather packets stored in our database for station/object DL5ARK. If no packets are shown the sender has not sent any weather packets the latest 10 day(s).
| Time | Temp. | Humidity | Pressure | Rain* | Wind** | Luminosity | Snow |
|---|---|---|---|---|---|---|---|
| 1777886508 | 20.56° C | 53% | 1001.8 hPa | 0 mm | - | - | - |
| 1777886327 | 20° C | 49% | 1001.8 hPa | 0 mm | - | - | - |
| 1777886148 | 20° C | 53% | 1002 hPa | 0 mm | - | - | - |
| 1777885970 | 20° C | 52% | 1002 hPa | 0 mm | - | - | - |
| 1777885787 | 20° C | 50% | 1002 hPa | 0 mm | - | - | - |
| 1777885607 | 20° C | 50% | 1002.3 hPa | 0 mm | - | - | - |
| 1777885428 | 19.44° C | 50% | 1002 hPa | 0 mm | - | - | - |
| 1777885248 | 19.44° C | 50% | 1002 hPa | 0 mm | - | - | - |
| 1777884887 | 18.89° C | 50% | 1002 hPa | 0 mm | - | - | - |
| 1777884707 | 19.44° C | 51% | 1002 hPa | 0 mm | - | - | - |
| 1777884527 | 19.44° C | 50% | 1002 hPa | 0 mm | - | - | - |
| 1777884347 | 19.44° C | 53% | 1002.3 hPa | 0 mm | - | - | - |
| 1777884170 | 19.44° C | 52% | 1002 hPa | 0 mm | - | - | - |
| 1777883988 | 18.89° C | 53% | 1002 hPa | 0 mm | - | - | - |
| 1777883807 | 18.89° C | 52% | 1002 hPa | 0 mm | - | - | - |
| 1777883627 | 18.33° C | 52% | 1002 hPa | 0 mm | - | - | - |
| 1777883447 | 18.33° C | 53% | 1002 hPa | 0 mm | - | - | - |
| 1777883267 | 18.33° C | 52% | 1002 hPa | 0 mm | - | - | - |
| 1777883087 | 18.89° C | 53% | 1001.8 hPa | 0 mm | - | - | - |
| 1777882908 | 18.33° C | 52% | 1002 hPa | 0 mm | - | - | - |
| 1777882728 | 18.33° C | 52% | 1002 hPa | 0 mm | - | - | - |
| 1777882547 | 18.33° C | 53% | 1002 hPa | 0 mm | - | - | - |
| 1777882187 | 18.33° C | 53% | 1002 hPa | 0 mm | - | - | - |
| 1777882007 | 18.33° C | 53% | 1002 hPa | 0 mm | - | - | - |
| 1777881827 | 18.33° C | 53% | 1001.8 hPa | 0 mm | - | - | - |
* Rain latest hour (hover to see other rain measurements)
** Current wind speed in m/s (hover to see current wind gust speed)